Wind_Speed
9 10 11 12 13 15 15 16 17 17 17 18 19 19 20 20 20 21 20 20 20 21 21 21 20 20 20 19 19 18 17 16 15 15 14 14 13 12 11 9 7 5 3
11 12 13 14 15 16 17 17 18 19 19 20 21 21 21 22 22 22 23 23 23 23 23 23 22 22 21 20 20 19 17 16 15 15 14 14 14 13 12 10 8 6 4
12 13 14 14 16 17 17 18 19 20 20 21 22 22 23 23 24 24 25 25 26 26 25 25 25 24 23 22 21 20 19 17 16 16 15 14 14 14 13 11 10 8 6
13 14 14 15 15 16 17 18 19 19 20 21 21 22 24 25 26 26 26 27 27 27 27 26 26 26 25 23 22 21 20 18 17 17 16 15 14 14 13 12 11 10 8
14 14 14 14 15 15 16 17 17 17 17 18 19 20 22 24 25 27 27 27 28 28 28 28 27 27 26 25 24 23 21 19 18 17 16 16 15 14 14 13 12 10 9
14 13 13 13 14 14 14 14 15 15 15 16 17 18 20 21 23 24 26 27 28 28 27 28 28 28 28 26 25 24 22 20 19 18 17 17 16 15 14 13 13 11 10
12 12 12 12 12 13 13 13 13 14 14 15 15 16 17 19 20 22 24 25 26 27 27 28 28 28 28 27 27 26 24 22 20 19 18 17 16 15 14 13 13 12 11
11 11 11 11 12 12 12 12 13 13 13 14 15 16 17 18 19 20 21 23 25 26 26 27 28 28 28 28 28 28 26 24 22 20 19 18 16 15 15 14 13 13 12
10 10 11 11 11 11 11 12 12 13 13 14 15 16 16 17 18 18 19 21 22 24 25 26 27 27 28 28 28 28 27 25 23 21 20 19 17 16 15 14 14 13 12
8 9 10 11 11 11 11 12 12 12 14 15 15 16 17 17 18 18 19 20 21 22 24 25 26 26 26 28 28 27 27 26 24 22 21 19 18 16 15 14 14 14 13
8 8 9 10 10 11 11 11 12 13 14 15 16 17 17 18 18 19 19 19 20 21 22 23 25 26 26 26 27 27 27 26 24 23 22 20 19 17 16 15 15 15 14
8 7 8 8 9 10 11 11 12 13 14 15 16 17 18 19 19 19 19 19 20 20 21 22 24 26 26 25 25 27 27 26 25 24 23 21 19 18 17 16 16 16 15
7 7 7 8 9 9 10 11 12 13 15 16 17 18 19 20 20 20 19 19 19 19 19 20 22 24 25 25 25 26 26 26 25 25 24 22 20 19 18 17 16 16 16
7 7 8 9 9 10 10 11 13 14 15 17 18 19 20 20 20 19 19 18 18 18 18 19 20 21 23 24 25 25 26 26 26 26 25 24 22 20 19 18 17 17 16
7 8 9 9 10 10 11 12 14 15 16 17 18 20 20 20 20 19 18 17 17 16 16 17 18 19 21 23 24 25 26 26 26 27 26 24 23 21 20 19 18 18 17
8 8 9 9 10 10 12 13 14 15 17 18 19 20 20 20 20 19 17 16 15 15 15 16 17 18 19 21 23 25 27 26 26 26 26 25 23 22 20 19 18 19 18
8 8 9 10 10 10 12 13 14 15 17 18 19 20 21 20 19 18 17 15 14 13 13 14 16 17 18 20 21 24 26 26 26 26 26 26 24 22 21 20 19 19 18
8 8 9 10 10 10 12 13 14 16 17 18 19 20 21 20 19 18 17 15 13 12 12 12 14 16 18 19 20 23 25 25 25 27 26 26 24 23 21 20 19 19 19
7 8 9 9 10 11 12 13 15 16 17 18 19 20 20 20 19 18 16 15 12 10 10 10 12 14 17 19 20 21 24 25 25 26 26 26 25 24 22 21 20 20 19
7 8 8 9 10 11 12 14 15 16 17 18 19 20 20 19 19 18 16 14 11 10 9 9 10 11 15 17 18 20 21 22 24 24 26 25 25 25 23 22 21 20 20
7 8 8 9 9 11 12 14 15 16 16 17 18 19 19 19 18 18 16 14 12 9 7 6 7 9 13 15 16 18 20 21 22 23 24 25 25 25 24 23 22 21 20
6 7 8 9 10 11 12 13 15 16 16 17 17 18 19 19 18 18 17 14 11 9 6 4 4 7 10 13 15 16 19 20 22 23 24 25 24 24 24 23 22 22 21
7 7 8 9 10 11 12 13 14 15 16 16 17 17 18 18 18 17 16 14 11 8 6 4 2 5 9 12 13 15 17 19 20 22 22 24 24 24 23 22 22 21 21
7 8 8 9 9 10 11 13 14 14 15 15 16 16 17 17 17 17 16 14 12 9 6 4 0 3 7 10 12 13 16 17 18 20 21 22 24 24 23 23 23 23 22
8 8 8 9 9 10 11 12 14 14 14 15 15 16 16 17 16 16 16 14 12 9 7 5 2 3 5 8 10 12 13 15 16 18 19 21 24 24 23 23 24 24 24
8 8 8 9 9 9 10 12 13 13 13 14 14 15 15 16 15 15 15 14 12 10 7 5 3 3 4 6 9 11 12 13 15 16 18 19 22 23 23 22 23 24 25
Wind_Direction
300 302 302 299 298 296 294 291 287 282 279 275 272 269 268 267 266 264 263 262 261 261 261 260 260 259 258 257 256 257 257 258 259 259 259 259 259 259 262 265 266 276 288
299 300 301 299 298 296 293 291 288 283 279 276 273 270 268 267 266 265 263 262 261 261 260 260 259 258 257 257 256 256 256 256 257 258 260 260 259 257 257 258 259 261 262
299 300 299 298 297 296 294 292 289 286 281 277 275 273 269 267 267 267 266 264 261 260 259 258 258 257 257 256 256 255 255 255 255 257 259 260 259 256 254 254 254 251 249
299 300 300 299 299 298 297 295 293 289 285 281 279 276 271 268 268 267 266 265 262 259 258 257 256 255 255 255 255 254 253 254 254 255 257 259 257 255 250 250 249 246 243
301 303 303 304 304 303 303 301 299 295 291 287 285 281 277 274 271 268 266 265 262 259 257 255 255 253 253 253 253 253 252 253 253 253 254 255 255 252 249 247 243 241 239
303 304 305 306 306 306 307 306 304 301 299 295 292 289 285 281 277 272 269 265 263 258 256 255 253 252 251 251 251 251 250 250 251 252 253 252 251 250 248 244 240 239 237
304 306 308 309 311 312 312 311 310 310 307 302 299 297 294 288 283 278 273 267 263 259 257 255 253 251 251 250 249 249 249 248 250 249 251 249 248 247 243 239 238 236 235
307 310 312 314 315 315 314 314 316 316 315 311 307 304 300 296 291 285 279 272 266 260 259 258 255 251 249 249 248 247 247 247 247 246 245 244 244 241 240 237 236 233 233
307 309 313 316 316 317 318 320 320 320 320 318 315 312 308 303 296 290 285 277 270 264 260 258 255 251 249 247 247 246 244 245 244 244 242 241 240 238 237 235 232 230 227
307 310 315 317 320 323 325 326 325 325 323 321 319 317 314 309 303 295 288 280 273 266 261 258 254 250 248 246 245 244 242 241 241 241 239 239 236 236 234 230 227 225 221
312 313 316 319 324 326 327 327 328 327 326 325 324 322 318 313 308 301 293 284 277 269 263 258 254 250 247 245 244 242 241 237 237 237 236 236 234 233 232 227 224 222 220
311 312 316 318 323 324 326 328 330 331 330 329 327 325 322 317 311 305 297 289 281 273 265 258 252 251 246 245 244 240 238 235 234 233 232 232 231 229 229 226 222 221 219
310 310 316 320 323 326 329 330 332 333 333 333 331 328 325 321 316 309 301 293 285 276 268 260 254 249 245 244 243 239 236 233 232 230 228 226 226 224 224 223 222 220 219
306 311 322 327 329 331 332 333 334 335 336 336 334 332 329 325 320 314 306 298 289 278 268 261 255 249 244 241 238 235 233 231 230 227 225 224 223 222 223 222 221 221 220
306 316 325 327 329 332 334 337 337 337 337 337 336 336 334 330 325 320 311 303 293 281 270 261 255 248 242 237 235 232 230 229 227 224 223 221 220 221 221 220 220 219 217
308 317 324 324 330 336 337 339 340 338 337 339 339 339 337 334 330 325 319 310 297 284 272 262 255 247 241 235 231 228 225 225 223 220 218 218 219 218 217 219 218 217 216
309 317 324 326 331 335 337 339 340 339 340 341 341 341 339 337 335 330 324 317 303 288 275 264 254 246 238 233 227 223 221 220 220 216 214 215 215 215 214 215 214 214 214
307 316 323 324 329 335 338 340 341 341 342 342 342 343 342 340 338 335 330 323 311 295 278 265 253 242 234 229 223 221 220 217 215 213 213 213 213 213 211 212 214 213 213
303 312 319 322 328 335 338 340 342 343 344 343 343 345 345 344 342 340 336 330 320 306 287 267 252 239 230 225 221 219 217 217 215 213 212 211 211 210 210 212 213 213 213
307 313 319 323 328 334 337 340 343 344 344 344 344 346 348 347 345 343 341 337 327 315 298 271 250 237 222 218 217 215 212 214 212 210 210 209 209 211 212 211 213 213 213
312 315 318 323 328 333 337 340 342 344 345 345 345 347 350 350 348 346 344 342 336 327 313 281 248 229 215 211 210 211 210 210 209 207 207 207 209 211 212 212 213 213 212
311 315 316 323 328 333 335 338 341 344 346 347 347 348 350 352 352 350 348 348 346 340 331 305 256 214 209 205 204 208 209 210 208 206 207 207 209 208 207 210 211 212 213
311 316 316 320 325 330 333 337 341 344 346 347 348 349 352 354 356 356 354 355 355 354 349 336 268 205 200 201 203 205 206 206 206 206 207 209 210 210 209 209 210 211 211
308 311 312 315 320 327 331 337 341 344 346 347 349 351 353 356 357 359 360 2 2 4 6 6 318 194 195 197 199 202 204 205 205 205 205 209 211 210 212 214 214 213 212
302 305 308 311 318 325 331 337 341 345 347 348 350 351 353 356 359 1 4 8 10 14 20 28 56 154 175 188 194 196 200 203 203 204 206 207 209 212 214 216 215 215 216
296 297 301 306 313 322 330 337 343 347 349 350 351 352 354 357 360 2 5 9 15 20 27 38 64 125 160 176 187 194 196 200 201 205 207 209 209 211 213 213 214 216 217
Height
5880 5879 5878 5877 5876 5875 5874 5873 5872 5871 5870 5870 5869 5868 5868 5867 5867 5867 5867 5867 5867 5867 5867 5867 5868 5868 5868 5869 5869 5870 5870 5870 5871 5872 5872 5873 5873 5874 5874 5874 5874 5875 5875
5878 5877 5876 5874 5873 5872 5871 5870 5869 5868 5867 5867 5866 5865 5865 5864 5864 5864 5864 5864 5864 5864 5864 5864 5865 5865 5865 5866 5866 5867 5868 5868 5869 5870 5870 5871 5871 5872 5873 5873 5874 5874 5874
5876 5875 5873 5872 5871 5869 5868 5867 5866 5865 5864 5863 5862 5862 5861 5860 5860 5860 5860 5859 5859 5860 5860 5860 5861 5861 5862 5863 5863 5864 5865 5866 5867 5867 5868 5869 5870 5870 5871 5872 5872 5873 5874
5874 5872 5871 5870 5868 5867 5865 5864 5863 5861 5860 5859 5858 5858 5857 5856 5856 5855 5855 5855 5855 5855 5855 5856 5857 5857 5858 5859 5860 5861 5862 5863 5864 5865 5866 5867 5868 5868 5869 5870 5871 5872 5873
5871 5870 5868 5867 5865 5864 5862 5861 5859 5858 5857 5856 5855 5853 5852 5852 5851 5851 5850 5850 5850 5850 5850 5851 5852 5853 5854 5855 5856 5858 5859 5860 5861 5862 5863 5864 5865 5866 5867 5868 5869 5870 5871
5869 5868 5866 5865 5863 5861 5860 5858 5857 5855 5854 5852 5851 5850 5848 5847 5846 5846 5845 5845 5844 5845 5845 5846 5847 5848 5850 5851 5852 5854 5855 5857 5858 5860 5860 5862 5863 5864 5865 5866 5867 5869 5870
5867 5865 5864 5862 5861 5859 5858 5856 5854 5853 5851 5850 5848 5846 5845 5843 5842 5841 5840 5839 5839 5840 5840 5841 5842 5843 5845 5846 5848 5849 5851 5853 5855 5856 5858 5859 5860 5862 5863 5864 5865 5867 5868
5865 5863 5862 5860 5859 5857 5856 5854 5852 5851 5849 5847 5845 5843 5841 5839 5838 5836 5835 5834 5834 5834 5835 5836 5836 5838 5839 5841 5843 5845 5847 5849 5851 5853 5854 5856 5857 5859 5861 5862 5864 5865 5867
5863 5862 5860 5858 5857 5855 5854 5852 5850 5848 5846 5844 5842 5840 5838 5836 5834 5832 5831 5830 5829 5829 5829 5830 5831 5832 5834 5836 5838 5840 5842 5845 5847 5849 5851 5853 5855 5856 5858 5860 5861 5863 5865
5861 5860 5858 5857 5855 5853 5852 5850 5848 5846 5844 5842 5839 5837 5835 5832 5830 5828 5827 5825 5824 5824 5824 5824 5825 5827 5828 5830 5832 5835 5837 5840 5843 5845 5848 5850 5852 5854 5856 5857 5859 5862 5864
5859 5858 5857 5855 5853 5852 5850 5848 5846 5844 5842 5839 5837 5834 5832 5829 5827 5824 5822 5821 5819 5819 5818 5819 5819 5821 5823 5825 5827 5829 5832 5835 5838 5841 5844 5846 5849 5851 5853 5855 5857 5860 5862
5858 5857 5856 5854 5852 5851 5849 5846 5844 5842 5839 5837 5834 5831 5828 5825 5823 5820 5818 5816 5814 5813 5813 5813 5814 5815 5817 5819 5821 5824 5827 5830 5834 5837 5840 5843 5846 5848 5850 5852 5855 5857 5860
5856 5855 5854 5853 5851 5849 5847 5844 5842 5839 5837 5834 5831 5828 5825 5822 5818 5816 5813 5811 5809 5808 5808 5808 5809 5810 5812 5814 5816 5819 5822 5825 5829 5833 5836 5839 5842 5845 5847 5850 5853 5855 5857
5855 5854 5852 5850 5849 5847 5845 5842 5840 5837 5834 5832 5828 5825 5821 5818 5815 5811 5808 5806 5804 5803 5803 5803 5804 5805 5806 5808 5811 5814 5817 5821 5824 5828 5832 5836 5839 5842 5845 5847 5850 5853 5855
5853 5852 5850 5849 5847 5845 5842 5840 5837 5835 5832 5829 5825 5822 5818 5814 5811 5807 5804 5802 5800 5798 5798 5798 5799 5800 5801 5803 5806 5809 5813 5816 5820 5824 5827 5831 5835 5838 5841 5844 5847 5850 5853
5851 5850 5848 5847 5845 5843 5840 5838 5835 5832 5829 5826 5823 5819 5815 5811 5807 5804 5800 5798 5795 5794 5794 5794 5794 5795 5796 5798 5801 5804 5808 5812 5816 5819 5823 5828 5832 5835 5838 5841 5844 5847 5850
5849 5848 5847 5845 5843 5841 5838 5836 5833 5830 5827 5824 5820 5816 5812 5808 5804 5800 5797 5794 5792 5790 5790 5789 5790 5791 5792 5794 5797 5800 5804 5808 5811 5815 5819 5824 5828 5832 5836 5839 5842 5845 5848
5848 5846 5845 5843 5841 5839 5837 5834 5831 5828 5825 5821 5818 5814 5810 5805 5801 5798 5794 5791 5788 5787 5786 5785 5785 5786 5788 5790 5793 5796 5799 5803 5808 5812 5816 5820 5825 5828 5832 5836 5839 5842 5845
5846 5845 5843 5841 5839 5837 5835 5832 5829 5826 5823 5819 5815 5812 5807 5803 5799 5796 5792 5788 5786 5784 5782 5782 5782 5782 5784 5786 5789 5792 5796 5799 5804 5808 5813 5817 5821 5825 5829 5833 5836 5840 5843
5844 5843 5841 5839 5838 5836 5833 5830 5827 5824 5821 5817 5814 5810 5806 5802 5798 5794 5790 5786 5784 5781 5780 5779 5779 5779 5781 5783 5786 5789 5793 5796 5800 5804 5809 5814 5818 5822 5826 5830 5833 5837 5840
5842 5841 5839 5838 5836 5834 5832 5829 5826 5823 5819 5816 5812 5808 5804 5800 5796 5792 5788 5785 5782 5779 5777 5776 5776 5776 5778 5780 5783 5787 5790 5793 5797 5802 5806 5810 5815 5819 5823 5827 5831 5834 5837
5840 5839 5837 5836 5834 5832 5830 5827 5824 5821 5817 5814 5811 5807 5803 5799 5795 5791 5787 5784 5781 5778 5776 5774 5774 5775 5776 5778 5781 5784 5788 5792 5795 5799 5803 5808 5812 5816 5820 5824 5828 5832 5835
5838 5837 5836 5834 5833 5831 5829 5826 5823 5819 5816 5813 5809 5806 5802 5798 5795 5791 5787 5783 5780 5777 5775 5774 5773 5774 5775 5778 5780 5783 5786 5790 5793 5797 5801 5805 5809 5813 5817 5821 5825 5828 5832
5836 5835 5834 5833 5831 5829 5827 5824 5821 5818 5815 5812 5808 5805 5802 5798 5794 5790 5787 5783 5780 5778 5776 5774 5774 5774 5775 5777 5779 5782 5785 5788 5792 5796 5799 5803 5807 5811 5814 5818 5822 5825 5829
5834 5833 5832 5831 5829 5828 5825 5823 5820 5817 5814 5811 5807 5804 5801 5798 5794 5791 5787 5784 5781 5778 5777 5775 5774 5774 5775 5777 5779 5781 5783 5786 5790 5793 5797 5800 5804 5808 5812 5815 5819 5822 5825
5832 5831 5830 5829 5828 5826 5824 5821 5819 5816 5813 5810 5807 5804 5801 5797 5794 5791 5788 5785 5782 5779 5777 5776 5775 5775 5776 5777 5779 5781 5783 5785 5788 5791 5794 5798 5801 5805 5808 5812 5815 5818 5822